Theta_e
326 322 317 319 309 308 299 296 301 303 313 316 319 314 302 301 300 305 310 310 312 329 342 346 345 350 349 349 348 349 348 346 346 346 346 345 343 341 340 342 343 345 349 348 346 344 343 341 341
323 314 316 314 305 299 293 297 298 300 301 307 314 313 306 296 298 303 305 309 311 319 325 330 338 346 348 348 348 348 346 346 345 345 344 343 342 340 340 339 340 341 345 348 346 344 343 344 343
315 314 302 301 298 295 294 294 296 298 307 315 310 305 297 291 296 301 304 308 309 314 318 324 332 339 344 347 347 347 347 345 343 342 342 341 340 338 339 337 338 338 339 344 346 344 342 340 337
325 316 307 296 292 292 292 295 294 299 305 303 307 295 296 297 296 301 305 306 306 310 312 318 326 333 338 341 344 347 345 343 342 341 340 339 338 337 336 335 335 336 335 339 342 341 338 335 334
317 309 296 291 290 294 295 295 293 295 298 299 310 296 293 295 299 301 303 304 303 305 308 312 319 324 331 333 338 341 344 343 341 340 338 338 336 336 336 335 334 335 332 334 338 337 334 333 332
307 305 292 289 288 292 294 292 292 291 292 292 298 296 290 295 296 299 301 301 302 302 305 308 312 317 323 326 330 335 340 341 339 338 337 337 336 335 335 334 333 333 333 334 334 334 332 331 330
304 299 292 291 290 289 288 293 287 287 289 288 295 292 291 291 295 298 298 299 300 300 302 304 307 310 315 319 321 325 329 334 338 338 337 338 338 338 336 336 333 333 333 333 333 333 332 330 330
305 300 292 291 289 285 289 289 288 286 283 291 292 283 284 288 293 294 296 295 296 296 298 300 303 306 309 312 315 318 321 323 322 321 333 333 334 334 334 333 334 336 335 336 335 334 332 331 331
312 296 289 289 289 288 292 287 290 290 285 285 286 285 287 289 290 290 292 292 292 294 294 297 299 303 306 308 311 313 315 316 315 314 316 326 337 335 333 331 332 335 336 336 335 333 333 332 328
302 292 289 294 291 287 289 289 289 287 285 285 285 287 288 288 288 287 287 287 288 289 291 294 296 299 302 305 307 309 310 311 310 309 311 314 318 323 333 328 324 328 330 333 335 335 334 329 332
295 289 291 291 291 290 286 284 288 287 282 284 283 285 286 286 286 286 286 288 288 289 290 291 294 297 298 300 303 305 307 307 307 306 307 310 312 313 314 321 334 336 325 335 334 334 334 334 333
290 291 291 293 293 290 286 287 283 284 284 287 286 286 286 285 285 285 286 287 289 288 289 291 292 293 297 298 299 301 303 302 301 302 304 305 308 310 312 314 316 328 334 334 334 333 333 332 332
289 290 290 289 288 287 287 283 283 283 287 287 286 286 285 285 285 286 287 287 287 288 289 291 291 291 294 295 297 298 298 299 301 300 301 302 304 306 307 309 310 310 311 314 323 332 331 331 331
290 289 289 288 288 288 285 284 285 285 287 285 285 284 284 285 285 286 286 286 287 288 289 290 291 291 293 294 295 295 295 298 299 298 298 299 301 301 305 304 304 304 307 310 312 320 330 330 330
292 287 287 287 291 290 292 282 282 285 285 284 284 284 285 285 286 286 287 287 287 288 289 289 290 292 292 292 294 295 294 295 295 296 296 298 298 298 300 300 300 301 305 307 308 309 312 324 328
288 289 284 285 290 289 289 277 283 286 284 283 283 284 285 285 286 287 288 288 289 288 288 290 290 291 291 292 293 293 294 294 295 295 295 296 296 298 298 297 298 299 302 303 304 305 307 309 313
288 283 283 283 288 287 286 279 282 284 283 282 283 283 284 285 286 287 288 288 288 289 289 289 290 290 291 292 292 293 293 293 293 294 294 295 296 296 295 297 297 298 299 300 300 300 302 304 310
282 282 281 281 282 285 282 279 281 283 282 281 282 283 283 284 285 287 288 289 289 289 289 289 289 290 291 291 292 292 292 292 293 293 293 293 294 294 295 294 295 296 298 299 299 298 300 301 306
285 283 281 281 284 281 279 279 280 281 282 281 282 282 283 283 286 288 288 289 289 289 288 288 289 289 290 289 289 289 289 290 291 292 292 292 293 293 293 293 294 294 295 295 296 297 298 301 303
284 282 281 282 282 282 280 278 280 281 281 281 281 282 282 284 285 286 287 288 288 288 288 288 288 288 289 289 290 290 290 290 291 291 292 292 292 292 292 291 292 292 292 292 293 294 295 296 300
279 279 279 280 282 283 282 279 279 281 281 282 282 283 283 283 283 284 286 287 288 288 288 287 288 288 289 289 290 290 290 290 289 289 290 291 292 292 292 291 291 291 291 290 291 293 292 292 296
276 279 283 282 281 279 282 278 280 281 280 281 282 283 283 284 285 285 285 285 287 287 289 289 288 289 289 290 289 288 287 286 288 289 290 290 291 291 291 291 291 290 291 290 290 291 292 292 291
277 281 282 282 280 279 276 277 280 281 279 281 282 283 283 284 284 284 285 285 286 288 288 289 289 289 289 289 289 288 287 288 289 289 289 289 290 291 290 290 290 289 290 290 290 290 290 292 291
282 281 281 281 280 276 273 275 278 280 282 283 283 283 284 284 285 285 286 286 287 288 288 288 288 288 289 289 289 288 288 287 287 287 287 288 289 289 290 289 289 289 289 289 289 289 290 290 291
280 280 276 275 276 276 274 273 280 282 283 284 284 284 284 285 285 285 285 285 286 287 288 288 288 288 289 289 288 288 288 288 287 287 287 287 287 287 287 288 288 288 288 288 288 288 289 290 290
275 275 276 272 274 274 271 272 279 281 284 284 285 285 284 284 285 284 285 285 286 286 288 288 288 288 289 289 289 289 289 288 288 288 288 287 287 287 288 287 287 287 287 287 288 288 288 289 289
274 275 274 267 257 270 274 275 277 280 281 281 281 282 283 284 284 284 285 285 285 286 287 287 287 288 288 288 289 289 289 289 288 289 289 288 288 287 287 287 287 287 286 286 286 286 286 287 288
276 276 273 274 271 271 274 271 278 277 279 281 280 281 283 284 283 284 285 285 286 286 286 287 287 287 288 288 289 288 288 289 289 289 288 288 288 287 287 286 286 285 285 286 285 285 286 286 287
275 273 270 273 270 272 271 277 281 280 282 282 282 283 284 284 284 284 285 286 286 286 286 287 287 287 288 288 288 288 288 288 288 288 288 288 287 287 286 285 285 284 284 285 284 284 284 284 285
274 272 273 275 269 268 269 274 279 280 282 283 284 284 285 285 285 284 285 285 285 286 286 287 287 287 288 288 287 287 288 288 287 287 287 287 286 286 285 284 284 283 283 284 283 283 283 283 284
Wind_Speed
17 9 3 4 5 1 5 7 3 7 5 12 15 14 17 18 7 5 20 20 32 25 13 4 7 8 10 11 11 10 9 9 9 9 9 9 8 7 7 7 9 9 8 11 10 11 10 9 9
8 3 2 2 5 7 5 6 8 9 9 10 13 11 16 8 11 13 14 30 27 19 16 19 23 5 10 11 9 10 9 9 8 8 8 7 7 6 6 6 7 8 5 10 10 11 9 7 6
4 7 6 5 4 6 5 8 11 10 11 5 8 15 8 11 16 12 18 24 23 17 16 19 24 25 2 9 11 10 9 8 7 6 5 5 5 5 5 5 7 7 7 8 8 11 9 4 3
3 4 5 8 10 11 7 11 12 10 5 17 6 13 10 15 14 14 21 22 19 17 18 21 27 26 23 19 8 9 7 6 6 6 4 4 3 4 4 3 5 7 6 7 9 9 7 3 2
5 4 7 7 11 9 12 16 16 14 6 16 5 8 7 14 18 18 19 18 18 18 17 18 28 27 26 27 26 4 6 6 5 4 3 3 3 3 3 4 4 6 3 4 8 7 4 3 4
5 2 5 6 7 10 10 19 13 15 16 11 10 10 8 15 19 19 17 16 17 17 17 18 25 27 26 28 28 26 13 5 4 3 2 2 1 1 2 2 2 3 3 3 4 4 4 4 4
6 3 5 13 11 5 11 7 16 15 15 15 9 7 5 20 17 15 16 15 16 18 18 20 20 22 25 27 28 28 27 27 12 4 3 2 1 1 1 1 1 1 2 3 3 3 3 5 5
5 4 9 5 10 6 9 12 17 14 19 8 7 12 6 15 16 14 12 13 16 19 22 21 19 19 18 17 27 26 27 27 27 28 15 7 4 3 2 3 3 5 1 4 4 4 4 5 5
2 4 5 6 7 10 9 13 16 17 23 25 17 17 11 12 12 14 13 16 22 20 22 19 20 20 17 16 17 22 25 27 27 23 24 15 7 6 5 4 7 7 6 6 6 5 5 4 5
7 5 5 12 13 15 17 13 12 11 18 20 20 18 14 15 17 19 19 23 23 25 22 19 19 20 17 13 16 15 15 13 14 16 16 12 14 16 11 8 6 8 8 8 7 7 6 6 6
9 6 19 22 23 21 18 25 9 4 14 14 16 15 15 17 17 19 20 22 19 19 17 19 16 17 18 15 11 8 9 9 10 17 15 12 9 9 8 9 10 7 4 7 6 7 7 7 6
11 19 11 14 16 11 16 11 21 17 11 12 14 12 14 18 17 18 22 20 21 17 18 18 17 15 13 10 10 11 9 9 10 14 17 11 9 11 10 8 11 11 9 9 8 7 8 10 9
17 16 17 20 21 20 22 21 15 17 11 11 12 15 17 15 19 17 14 16 15 20 16 18 17 15 12 10 9 9 10 10 11 10 13 11 10 9 9 10 10 10 10 10 13 10 9 10 11
12 17 14 15 21 15 19 13 5 10 6 8 11 11 13 17 19 17 18 17 16 16 20 18 18 16 14 13 12 11 9 9 9 10 12 14 11 10 9 10 10 10 9 9 9 11 11 11 11
16 19 18 13 1 5 3 22 13 4 6 9 10 10 11 14 14 16 15 17 16 15 14 17 18 17 16 13 13 10 8 8 10 11 13 15 13 12 10 9 10 9 9 10 10 10 11 9 10
3 4 5 13 3 6 3 6 6 3 8 11 12 12 14 16 17 16 15 16 15 15 17 15 15 16 17 15 13 10 11 10 10 10 12 17 15 16 13 9 10 10 9 9 10 9 9 8 10
8 7 9 7 10 4 4 9 2 5 7 10 10 11 11 12 14 14 14 14 15 15 15 15 15 16 16 15 11 11 13 11 11 12 12 17 16 16 11 10 10 11 8 8 9 9 10 9 8
5 7 10 10 12 18 18 14 7 6 8 8 8 8 10 11 12 12 13 12 13 14 15 15 13 16 14 11 10 9 9 11 11 11 12 15 13 16 14 12 13 13 11 11 10 11 9 9 9
12 14 14 7 2 11 13 12 8 5 6 6 6 7 9 10 8 9 9 10 11 13 14 15 16 16 12 11 11 10 11 10 10 11 15 15 15 16 15 11 13 12 12 14 15 13 15 9 12
13 15 11 9 7 7 10 9 6 5 4 3 3 4 5 7 9 10 10 10 9 10 11 12 13 13 12 9 10 8 8 7 9 9 12 14 15 15 13 14 13 15 12 15 15 15 12 9 11
11 7 4 7 8 9 7 7 9 6 5 3 2 1 2 5 7 9 10 10 9 8 8 9 10 11 12 12 8 8 8 7 10 11 10 12 14 13 13 14 12 13 11 11 13 13 14 10 10
5 3 7 10 3 3 3 3 8 10 9 7 6 6 1 3 6 8 10 11 10 9 6 7 8 9 9 11 10 12 10 10 9 10 10 10 13 13 13 13 13 12 10 12 11 11 11 11 11
5 3 4 3 4 3 2 2 6 6 12 12 10 7 4 0 4 7 8 8 8 7 6 6 7 8 8 9 9 8 9 7 7 9 12 13 12 12 13 13 12 12 10 11 13 13 12 9 10
7 4 4 2 1 2 2 3 5 7 9 11 12 10 7 5 3 8 8 8 8 6 4 4 5 6 7 8 8 9 9 9 9 10 9 10 9 9 13 14 12 11 11 11 11 13 13 11 10
2 2 1 2 2 1 2 3 4 6 6 8 14 12 9 6 5 8 10 9 8 8 6 4 5 7 7 9 9 9 8 9 9 10 8 11 9 9 11 13 14 12 13 13 12 12 12 12 11
3 1 2 3 2 2 1 5 2 1 4 5 8 8 8 7 6 7 8 8 8 8 7 6 6 8 7 8 10 8 8 5 6 8 8 8 9 9 12 12 12 14 14 13 13 10 10 12 11
3 1 2 7 1 3 0 3 5 4 8 7 9 9 11 9 7 8 8 6 6 6 7 7 7 8 8 7 7 9 8 8 8 10 9 8 11 9 12 13 14 14 14 14 14 10 13 12 12
3 7 2 1 2 4 2 5 3 10 14 12 13 14 13 10 10 7 7 7 6 6 7 7 8 9 9 8 7 7 9 9 9 9 11 12 12 13 14 14 15 15 15 14 14 12 13 13 11
2 2 5 3 3 2 4 3 3 8 9 14 14 14 12 11 11 8 8 8 8 8 7 7 8 9 9 8 7 8 9 9 9 9 11 11 12 13 14 15 16 16 16 15 14 14 15 15 15
1 1 2 2 4 2 2 8 4 4 4 7 10 9 10 10 10 10 10 10 9 8 7 8 9 9 9 8 8 9 9 9 9 10 12 11 12 13 14 15 16 16 16 16 15 16 15 15 15
Wind_Direction
311 311 270 228 214 185 84 63 35 28 64 31 51 69 97 41 358 59 335 354 341 346 317 200 162 145 131 127 124 114 103 103 101 97 94 86 81 69 57 41 25 9 120 113 106 100 105 107 106
300 303 300 324 236 173 97 24 24 9 338 298 50 62 46 74 32 328 341 341 338 335 12 12 10 162 146 137 120 109 108 108 106 102 100 97 92 71 56 36 19 14 47 117 122 116 107 107 101
293 47 54 16 13 86 100 18 339 328 10 5 107 45 39 350 347 346 329 335 337 352 11 16 24 21 160 135 121 108 107 108 104 96 94 101 100 94 86 39 11 6 26 75 99 112 98 88 87
10 48 51 59 71 43 35 357 337 341 44 30 97 74 103 38 344 333 337 342 344 359 13 20 27 30 25 15 117 117 122 108 102 106 100 95 91 95 98 39 47 34 19 21 64 74 76 45 37
30 60 72 97 60 78 45 17 22 38 57 22 101 83 68 3 352 347 347 351 355 9 10 20 25 26 27 27 20 55 101 89 94 95 98 111 116 122 107 78 60 43 7 351 20 37 26 2 353
69 53 110 132 122 37 41 34 41 39 39 11 60 87 68 351 2 343 351 355 10 16 14 21 22 22 25 27 24 21 5 87 87 91 98 110 97 103 98 73 66 53 20 342 336 353 346 329 328
92 74 104 122 125 70 30 17 26 36 38 25 19 72 66 9 9 342 1 5 24 23 23 26 18 15 20 22 22 27 26 24 356 29 23 35 39 63 32 9 308 284 289 295 309 325 315 312 322
92 77 122 85 135 70 31 67 45 48 38 77 40 39 15 354 21 354 7 28 22 29 34 25 20 20 19 15 21 28 28 30 25 15 354 351 322 329 303 300 248 323 289 311 306 299 296 301 316
207 87 91 120 118 127 101 90 69 74 74 64 70 66 50 16 36 13 32 33 32 27 29 24 22 19 20 21 15 22 23 29 26 14 7 350 328 328 314 7 325 317 320 308 299 292 292 306 273
36 59 36 87 88 89 65 73 76 65 41 51 49 41 35 35 32 37 18 36 30 28 22 23 23 23 16 23 19 20 24 24 22 17 12 9 3 360 335 307 307 306 303 295 288 286 283 252 274
35 67 96 93 100 90 84 58 44 71 48 34 30 24 33 36 37 40 38 36 35 34 22 25 24 28 21 21 21 21 25 15 17 18 16 7 9 7 2 354 334 311 287 286 267 259 252 264 269
105 57 55 84 87 80 67 86 66 56 61 39 28 29 34 39 44 36 36 33 35 30 27 22 18 32 26 28 14 21 27 27 20 18 11 11 4 13 8 3 355 342 323 302 290 288 284 276 268
68 88 70 84 88 84 90 71 68 49 39 59 45 33 40 41 44 43 38 36 31 35 28 26 25 29 30 26 41 19 26 23 24 25 18 8 8 14 4 6 5 1 352 358 336 294 283 282 278
108 96 90 73 76 72 76 55 68 32 55 63 64 55 46 42 41 36 31 32 32 25 26 28 29 25 20 30 28 29 22 20 35 23 13 12 11 14 7 15 3 0 348 347 344 327 296 285 276
111 86 69 21 88 147 307 40 52 69 126 96 80 76 68 58 58 54 42 37 31 32 27 25 25 27 29 28 32 34 23 25 29 26 23 16 14 14 12 6 12 352 348 341 351 353 349 311 275
160 104 90 31 22 22 228 80 70 44 68 67 64 62 59 55 52 48 42 42 39 39 36 32 30 28 27 28 31 32 27 31 32 29 22 17 15 6 10 10 8 349 349 352 354 347 341 331 327
34 89 76 83 35 77 78 127 145 84 72 65 58 57 55 52 48 45 39 37 32 31 34 36 32 30 27 30 34 33 30 34 32 27 21 16 14 12 13 6 3 353 355 355 354 349 338 321 325
101 105 66 68 46 87 97 117 126 88 80 71 62 59 58 50 39 38 36 34 37 33 33 33 34 29 28 31 28 33 35 29 28 27 22 16 13 12 12 7 4 359 359 358 353 353 341 318 343
99 97 98 101 108 68 104 117 118 109 97 88 70 59 56 48 35 33 34 29 27 33 30 30 27 26 25 25 20 21 17 19 21 19 17 14 12 11 9 5 1 0 359 357 357 353 347 345 349
95 103 97 85 88 104 138 127 145 158 126 118 97 73 47 39 31 23 21 18 18 27 24 27 30 27 26 22 21 14 14 12 13 11 13 13 11 9 6 3 358 0 354 356 355 356 350 336 348
52 82 130 123 112 85 153 164 183 177 168 172 182 259 32 9 12 8 10 14 8 14 17 20 25 26 27 20 18 17 15 12 9 8 7 6 5 5 5 2 357 354 354 351 348 349 351 338 331
75 11 116 124 181 133 280 153 210 190 197 211 205 203 141 11 9 3 358 357 352 352 355 11 16 22 22 19 18 19 15 7 2 359 356 358 3 1 1 356 353 350 346 345 341 342 338 338 330
99 136 112 69 83 193 80 249 115 197 221 214 213 212 195 65 17 2 352 344 338 343 338 348 357 8 11 13 16 11 10 3 352 356 353 356 354 355 355 352 345 344 340 336 333 333 334 330 323
127 125 98 95 115 235 144 295 170 187 224 211 207 212 212 229 328 358 345 338 337 342 318 329 335 342 354 355 357 359 356 352 350 354 351 351 345 345 347 345 342 337 333 329 326 322 320 319 314
193 184 210 196 214 35 113 256 298 198 210 225 202 205 209 231 282 328 334 331 329 332 326 304 320 318 334 341 344 343 338 337 340 343 342 339 339 338 338 336 335 331 328 324 320 315 311 311 307
56 224 325 303 282 10 84 235 123 185 221 234 217 204 213 231 258 288 309 312 313 317 310 288 303 304 316 327 330 330 325 321 320 326 327 326 330 328 328 328 324 322 320 318 317 312 307 304 301
131 107 87 107 118 259 17 250 215 221 219 207 203 210 224 232 239 284 293 292 292 292 290 264 272 281 281 294 314 318 317 311 310 314 317 320 318 320 322 323 321 320 316 313 312 306 305 304 300
358 127 149 88 305 282 216 263 247 207 219 206 216 223 231 232 232 283 281 287 288 286 283 253 250 267 276 281 296 303 304 299 300 301 306 313 314 318 320 321 321 319 315 311 309 305 302 302 295
169 157 69 96 334 283 304 254 182 198 198 203 218 227 233 234 241 277 289 281 278 280 278 267 255 266 267 266 283 295 301 300 302 300 308 310 311 314 316 316 316 315 312 310 306 301 299 296 297
293 266 279 213 177 58 341 272 184 193 185 213 232 241 244 245 259 273 275 273 275 273 277 274 268 264 266 267 277 286 292 295 297 305 311 312 309 312 312 312 310 309 307 307 304 301 300 295 294